Home > Weather > Fetsund > Past weeks

Flag for Norway Past Weather in Fetsund, Norway — Yesterday and Last 2 Weeks

Now
67 °F

Scattered clouds.


Feels Like: 67 °F
Forecast: 54 / 65 °F
Wind: 5 mph from South

Location: Oslo-Blindern

Current Time: Jul 29, 2016 at 2:18:27 AM

Latest Report: Jul 28, 2016 at 8:00 PM


Visibility: 47 mi

Pressure: 29.78 "Hg

Humidity: 66%

Dew Point: 55 °F

Location of FetsundLocation

Past Weather in Fetsund — Graph

°F

Fetsund Temperature Yesterday

Maximum temperature yesterday: 72 °F (at 2:00 PM)
Minimum temperature yesterday: 58 °F (at 12:00 AM)
Average temperature yesterday: 64 °F

High & Low Weather Summary for the Past Weeks

 TemperatureHumidityPressure
High82 °F (Jul 21, 3:00 PM)97% (Jul 14, 2:00 AM)30.13 "Hg (Jul 14, 2:00 AM)
Low49 °F (Jul 17, 5:00 AM)37% (Jul 22, 7:00 PM)29.67 "Hg (Jul 13, 8:00 PM)
Average65 °F71%29.94 "Hg
* Reported Jul 13 8:00 PM — Jul 28 8:00 PM, Fetsund, Weather by CustomWeather, © 2016

Note: Actual official high and low records may vary slightly from our data, if they occured in-between our weather recording intervals... More about our weather records

Advertising

Fetsund Weather History for the Previous 24 Hours

Scroll right to see more
 ConditionsComfort  
Time TempWeatherWind HumidityBarometerVisibility
8:00 PM
Thu, Jul 28
67 °FScattered clouds.5 mph66%29.78 "Hg47 mi
6:00 PM69 °FMild.7 mph63%29.78 "HgN/A
5:00 PM71 °FScattered clouds.7 mph60%29.78 "Hg47 mi
3:00 PM71 °FMild.6 mph49%29.78 "HgN/A
2:00 PM72 °FScattered clouds.5 mph49%29.78 "Hg47 mi
1:00 PM70 °FMild.5 mph50%29.77 "HgN/A
12:00 PM67 °FMild.3 mph59%29.77 "HgN/A
11:00 AM69 °FPartly sunny.3 mph67%29.75 "Hg43 mi
10:00 AM67 °FMild.3 mph72%29.75 "HgN/A
9:00 AM61 °FCool.3 mph85%29.73 "HgN/A
8:00 AM59 °FCool.2 mph89%29.73 "HgN/A
7:00 AM60 °FCool.3 mph89%29.72 "HgN/A
6:00 AM60 °FCool.6 mph90%29.72 "HgN/A
5:00 AM60 °FCool.3 mph93%29.73 "HgN/A
4:00 AM60 °FCool.5 mph93%29.74 "HgN/A
3:00 AM60 °FCool.5 mph95%29.75 "HgN/A
2:00 AM59 °FCool.2 mph95%29.77 "HgN/A
Weather by CustomWeather, © 2016

See weather overviewHow to use our weather pages